Location: Babice
(50.3480°N, 22.9363°E)
Time: 01:20:52
(UTC+00:00)

Cosmos 1980 Rocket - Pass Details

Date: 14 July 2020
Orbit: 828 x 851 km, 71.0° (Epoch: 06 August)

Event Time Altitude Azimuth Distance (km) Brightness Sun altitude
Rises 01:40:41 0° 326° (NW) 3,430 5.5 -7.1°
Reaches altitude 10° 01:43:16 10° 319° (NW) 2,489 4.7 -6.8°
Maximum altitude 01:48:33 40° 252° (WSW) 1,232 2.7 -6.2°
Drops below altitude 10° 01:53:47 10° 184° (S) 2,465 4.2 -5.6°
Sets 01:56:20 0° 177° (S) 3,393 4.9 -5.4°
